EW5925 Weather Reports


time (UTC)temp
F
wind
direction
speed
knots
gust
knots
rain 1hr
in
rain 24hr
in
rain mn
in
humidity
%
barometer
mb
20260902224553 66 310 1.7 5.2 0.00 0.00 0.00 81 1021.4
20260902224036 66 336 1.7 5.2 0.00 0.00 0.00 83 1021.5
20260902223536 65 6 0.9 4.3 0.00 0.00 0.00 85 1021.5
20260902223257 64 315 0.9 4.3 0.00 0.00 0.00 87 1021.5
20260902222534 63 219 0.9 4.3 0.00 0.00 0.00 89 1021.5
20260902222250 62 258 0.0 2.6 0.00 0.00 0.00 91 1021.5
20260902221532 61 258 0.9 2.6 0.00 0.00 0.00 93 1021.4
20260902221033 60 251 0.9 2.6 0.00 0.00 0.00 93 1021.3
20260902220533 60 251 0.0 2.6 0.00 0.00 0.00 94 1021.3
20260902220030 59 245 0.0 3.5 0.00 0.00 0.00 94 1021.2
20260902215530 58 245 0.0 3.5 0.00 0.00 0.00 94 1021.1
20260902215030 58 245 0.9 3.5 0.00 0.00 0.00 94 1021.1
20260902214525 58 245 0.0 3.5 0.00 0.00 0.00 94 1021.1
20260902214022 57 342 0.0 1.7 0.00 0.00 0.00 94 1021.3
20260902213532 56 342 0.0 1.7 0.00 0.00 0.00 94 1021.3
20260902213021 56 342 0.0 1.7 0.00 0.00 0.00 94 1021.3
20260902212507 56 342 0.0 0.9 0.00 0.00 0.00 93 1021.3
20260902212020 55 342 0.0 1.7 0.00 0.00 0.00 93 1021.3
20260902211733 55 342 0.0 1.7 0.00 0.00 0.00 93 1021.3
20260902211228 54 342 0.0 0.0 0.00 0.00 0.00 93 1021.3
20260902210503 54 342 0.0 0.0 0.00 0.00 0.00 92 1021.2
20260902210000 53 342 0.0 0.0 0.00 0.00 0.00 92 1021.1
20260902205459 53 342 0.0 0.0 0.00 0.00 0.00 92 1021.1
20260902205001 53 342 0.0 0.0 0.00 0.00 0.00 92 1021.0
20260902204458 52 342 0.0 0.0 0.00 0.00 0.00 91 1020.9
20260902203957 52 342 0.0 0.0 0.00 0.00 0.00 91 1020.8
20260902203500 52 342 0.0 0.0 0.00 0.00 0.00 91 1020.7
20260902202952 52 342 0.0 0.0 0.00 0.00 0.00 91 1020.6
20260902202450 52 342 0.0 0.0 0.00 0.00 0.00 91 1020.6
20260902202205 52 342 0.0 0.0 0.00 0.00 0.00 91 1020.6
20260902201449 52 342 0.0 0.0 0.00 0.00 0.00 91 1020.5
20260902201149 52 342 0.0 0.0 0.00 0.00 0.00 91 1020.5
20260902200429 52 342 0.0 0.0 0.00 0.00 0.00 90 1020.5
20260902195902 53 342 0.0 0.9 0.00 0.00 0.00 90 1020.4
20260902195623 53 342 0.0 0.9 0.00 0.00 0.00 90 1020.4
20260902194902 53 342 0.0 0.9 0.00 0.00 0.00 90 1020.4
20260902194359 53 342 0.0 0.9 0.00 0.00 0.00 90 1020.3
20260902193859 53 342 0.0 0.9 0.00 0.00 0.00 90 1020.2
20260902193623 53 342 0.0 0.9 0.00 0.00 0.00 90 1020.2
20260902192858 53 342 0.0 0.9 0.00 0.00 0.00 90 1020.1
20260902192356 53 342 0.0 0.0 0.00 0.00 0.00 90 1020.1
20260902192113 53 342 0.0 0.0 0.00 0.00 0.00 90 1020.0
20260902191353 53 342 0.0 0.0 0.00 0.00 0.00 90 1020.0
20260902190845 53 342 0.0 0.0 0.00 0.00 0.00 90 1020.0
20260902190343 53 342 0.0 0.9 0.00 0.00 0.00 90 1020.0
20260902185842 53 342 0.0 0.9 0.00 0.00 0.00 90 1019.9
20260902185344 54 342 0.0 0.9 0.00 0.00 0.00 89 1019.8
20260902184817 54 342 0.0 1.7 0.00 0.00 0.00 89 1019.8
20260902184133 54 342 0.0 0.9 0.00 0.00 0.00 89 1019.8
20260902183626 54 342 0.0 0.9 0.00 0.00 0.00 89 1019.6
20260902183125 54 342 0.0 0.0 0.00 0.00 0.00 89 1019.6
20260902182622 54 342 0.0 0.0 0.00 0.00 0.00 89 1019.6
20260902182125 54 342 0.0 0.0 0.00 0.00 0.00 89 1019.7
20260902181614 55 342 0.0 0.0 0.00 0.00 0.00 89 1019.7
20260902181336 55 342 0.0 0.0 0.00 0.00 0.00 89 1019.7
20260902180611 55 342 0.0 0.0 0.00 0.00 0.00 88 1019.6
20260902180118 55 342 0.0 0.0 0.00 0.00 0.00 88 1019.5
20260902175608 55 342 0.0 0.0 0.00 0.00 0.00 88 1019.5
20260902175109 55 342 0.0 0.0 0.00 0.00 0.00 88 1019.6
20260902174604 55 342 0.0 0.0 0.00 0.00 0.00 88 1019.6
20260902174104 55 342 0.0 0.0 0.00 0.00 0.00 88 1019.6
20260902173555 56 342 0.0 0.0 0.00 0.00 0.00 88 1019.5
20260902173056 56 342 0.0 0.0 0.00 0.00 0.00 88 1019.5
20260902173033 56 342 0.0 0.0 0.00 0.00 0.00 88 1019.5
20260902172055 56 342 0.0 0.0 0.00 0.00 0.00 88 1019.5
20260902171529 56 342 0.0 0.9 0.00 0.00 0.00 88 1019.5
20260902171028 56 342 0.0 0.9 0.00 0.00 0.00 88 1019.4
20260902170525 56 342 0.0 0.0 0.00 0.00 0.00 88 1019.4
20260902170025 57 342 0.0 0.0 0.00 0.00 0.00 87 1019.5
20260902165522 57 342 0.0 0.0 0.00 0.00 0.00 87 1019.5
20260902165020 57 342 0.0 0.9 0.00 0.00 0.00 87 1019.5
20260902164737 57 342 0.0 0.9 0.00 0.00 0.00 87 1019.6
20260902164012 57 342 0.0 0.9 0.00 0.00 0.00 86 1019.7
20260902163512 58 342 0.0 0.9 0.00 0.00 0.00 86 1019.6
20260902163007 58 342 0.0 0.0 0.00 0.00 0.00 86 1019.7
20260902162506 58 342 0.0 0.0 0.00 0.00 0.00 86 1019.7
20260902162005 58 342 0.0 0.0 0.00 0.00 0.00 86 1019.8
20260902161502 58 342 0.0 0.0 0.00 0.00 0.00 85 1019.8
20260902161004 59 342 0.0 0.0 0.00 0.00 0.00 85 1019.8
20260902160447 59 342 0.0 0.9 0.00 0.00 0.00 84 1019.9
20260902160427 59 342 0.0 0.9 0.00 0.00 0.00 84 1019.8
20260902155657 59 342 0.0 0.0 0.00 0.00 0.00 84 1019.8
20260902154937 60 342 0.0 0.9 0.00 0.00 0.00 84 1019.9
20260902154435 60 342 0.0 0.9 0.00 0.00 0.00 84 1019.9
20260902153934 60 342 0.0 0.0 0.00 0.00 0.00 83 1019.9
20260902153432 60 342 0.0 0.0 0.00 0.00 0.00 83 1020.1
20260902152930 61 342 0.0 0.0 0.00 0.00 0.00 83 1020.2
20260902152427 61 342 0.0 0.0 0.00 0.00 0.00 83 1020.3
20260902152144 61 342 0.0 0.0 0.00 0.00 0.00 83 1020.3
20260902151425 62 342 0.0 0.9 0.00 0.00 0.00 82 1020.3
20260902150921 62 342 0.0 0.9 0.00 0.00 0.00 82 1020.3
20260902150420 62 342 0.0 0.0 0.00 0.00 0.00 82 1020.3
20260902150135 62 342 0.0 0.9 0.00 0.00 0.00 82 1020.3
20260902145411 62 342 0.0 0.9 0.00 0.00 0.00 82 1020.3
20260902144909 63 342 0.0 0.9 0.00 0.00 0.00 81 1020.3
20260902144411 63 342 0.0 0.0 0.00 0.00 0.00 81 1020.3
20260902143844 63 342 0.0 0.0 0.00 0.00 0.00 82 1020.3
20260902143331 63 342 0.0 0.0 0.00 0.00 0.00 82 1020.3
20260902142829 64 342 0.0 1.7 0.00 0.00 0.00 82 1020.3
20260902142328 64 342 0.0 1.7 0.00 0.00 0.00 82 1020.4
20260902142055 64 342 0.9 3.5 0.00 0.00 0.00 82 1020.4
20260902141549 64 342 1.7 4.3 0.00 0.00 0.00 82 1020.4
20260902140832 64 342 1.7 4.3 0.00 0.00 0.00 82 1020.4
20260902140317 64 342 1.7 4.3 0.00 0.00 0.00 82 1020.4
20260902140302 64 342 1.7 4.3 0.00 0.00 0.00 82 1020.4
20260902135314 64 351 1.7 3.5 0.00 0.00 0.00 81 1020.4
20260902134814 64 349 0.9 3.5 0.00 0.00 0.00 81 1020.4
20260902134318 65 349 0.9 3.5 0.00 0.00 0.00 81 1020.4
20260902133804 65 343 0.9 3.5 0.00 0.00 0.00 80 1020.5
20260902133302 65 339 0.9 4.3 0.00 0.01 0.00 80 1020.4
20260902132803 65 339 1.7 4.3 0.00 0.01 0.00 80 1020.6
20260902132234 65 338 1.7 4.3 0.00 0.01 0.00 79 1020.6
20260902131711 65 317 1.7 5.2 0.00 0.01 0.00 79 1020.6
20260902131438 65 357 2.6 5.2 0.00 0.01 0.00 79 1020.6
20260902130657 65 10 2.6 6.1 0.00 0.01 0.00 79 1020.6
20260902130208 65 355 1.7 6.1 0.00 0.01 0.00 79 1020.6
20260902125654 65 349 2.6 7.0 0.00 0.01 0.00 79 1020.6
20260902125154 65 3 3.5 7.0 0.00 0.01 0.00 79 1020.6
20260902124654 65 4 2.6 7.8 0.00 0.01 0.00 79 1020.7
20260902124151 65 1 2.6 7.8 0.00 0.01 0.00 80 1020.8
20260902123651 65 6 2.6 8.7 0.00 0.01 0.00 80 1020.8
20260902123152 65 295 3.5 8.7 0.00 0.01 0.00 81 1020.8
20260902122645 65 0 3.5 9.6 0.00 0.01 0.00 81 1020.8
20260902122143 65 342 3.5 9.6 0.00 0.01 0.00 81 1020.8
20260902121641 65 334 3.5 7.0 0.00 0.01 0.00 82 1020.8
20260902121144 65 335 3.5 6.1 0.00 0.01 0.00 82 1020.8
20260902120621 65 337 3.5 10.4 0.00 0.01 0.00 83 1020.7
20260902120108 65 346 3.5 10.4 0.00 0.01 0.00 83 1020.7
20260902115558 65 345 3.5 7.8 0.00 0.01 0.00 83 1020.8
20260902115052 65 309 3.5 7.8 0.00 0.01 0.00 84 1020.8
20260902114550 65 353 3.5 7.8 0.00 0.01 0.00 84 1020.8
20260902114047 65 328 2.6 6.1 0.00 0.01 0.00 83 1020.8
20260902113548 65 358 2.6 7.8 0.00 0.01 0.00 83 1020.8
20260902113046 65 349 2.6 9.6 0.00 0.01 0.00 83 1020.8
20260902112548 65 4 2.6 9.6 0.00 0.01 0.00 83 1020.7
20260902112043 65 10 2.6 6.1 0.00 0.01 0.00 83 1020.7
20260902111544 65 337 1.7 5.2 0.00 0.01 0.00 83 1020.8
20260902111044 65 5 1.7 4.3 0.00 0.01 0.00 83 1020.8
20260902110541 65 357 2.6 5.2 0.00 0.01 0.00 83 1020.9
20260902110054 65 313 2.6 5.2 0.00 0.01 0.00 83 1020.8
20260902105543 65 326 1.7 4.3 0.00 0.01 0.00 83 1020.8
20260902105018 65 15 0.9 3.5 0.00 0.01 0.00 83 1020.7
20260902104452 66 10 1.7 5.2 0.00 0.01 0.00 83 1020.8
20260902104147 66 2 1.7 5.2 0.00 0.01 0.00 83 1020.7
20260902103355 66 324 1.7 4.3 0.00 0.01 0.00 83 1020.6
20260902102827 66 347 1.7 4.3 0.00 0.01 0.00 83 1020.5
20260902102307 66 347 2.6 7.8 0.00 0.01 0.00 83 1020.4
20260902101740 66 10 2.6 7.8 0.00 0.01 0.00 83 1020.5
20260902101214 66 341 1.7 7.8 0.00 0.01 0.00 83 1020.5
20260902100122 66 353 1.7 5.2 0.00 0.01 0.00 82 1020.4
20260902095607 66 342 1.7 5.2 0.00 0.01 0.00 82 1020.4
20260902095025 66 351 2.6 5.2 0.00 0.01 0.00 82 1020.3
20260902094455 67 340 2.6 5.2 0.00 0.01 0.00 82 1020.3
20260902093944 67 354 2.6 5.2 0.00 0.01 0.00 83 1020.2
20260902093440 67 343 2.6 6.1 0.00 0.01 0.00 82 1020.2
20260902092947 67 338 2.6 6.1 0.00 0.01 0.00 82 1020.2
20260902092432 67 2 2.6 4.3 0.00 0.01 0.00 82 1020.2
20260902091925 67 340 2.6 7.0 0.00 0.01 0.00 82 1020.1
20260902091427 67 310 2.6 7.0 0.00 0.01 0.00 82 1020.1
20260902091144 67 341 2.6 7.8 0.00 0.01 0.00 82 1020.0
20260902090416 67 342 2.6 7.8 0.00 0.01 0.00 81 1020.1
20260902085915 67 353 2.6 7.0 0.00 0.01 0.00 81 1020.0
20260902085415 67 355 1.7 7.0 0.00 0.01 0.00 81 1020.0
20260902084914 67 30 1.7 5.2 0.00 0.01 0.00 81 1019.9
20260902084413 67 345 2.6 7.8 0.00 0.01 0.00 80 1019.9
20260902083913 67 23 2.6 7.8 0.00 0.01 0.00 80 1019.9
20260902083415 67 349 2.6 7.8 0.00 0.01 0.00 80 1019.8
20260902082859 68 2 2.6 7.0 0.00 0.01 0.00 80 1019.8
20260902082328 68 344 2.6 7.0 0.00 0.01 0.00 80 1019.8
20260902081830 68 355 2.6 7.0 0.00 0.01 0.00 79 1019.8
20260902081321 68 353 2.6 7.0 0.00 0.01 0.00 79 1019.7
20260902080819 68 339 3.5 7.0 0.00 0.01 0.00 78 1019.7
20260902080313 68 337 3.5 7.0 0.00 0.01 0.00 78 1019.6
20260902075811 69 327 3.5 7.8 0.00 0.01 0.00 77 1019.6
20260902075310 69 0 2.6 7.8 0.00 0.01 0.00 77 1019.5
20260902074807 69 29 2.6 9.6 0.00 0.01 0.00 76 1019.5
20260902074305 69 346 2.6 9.6 0.00 0.01 0.00 76 1019.4
20260902073803 69 353 3.5 9.6 0.00 0.01 0.00 75 1019.4
20260902073301 69 342 2.6 9.6 0.00 0.01 0.00 74 1019.4
20260902072801 70 26 2.6 5.2 0.00 0.01 0.00 73 1019.3
20260902072301 70 357 3.5 11.3 0.00 0.01 0.00 72 1019.2
20260902071759 70 0 4.3 11.3 0.00 0.01 0.00 72 1019.3
20260902071301 70 344 3.5 8.7 0.00 0.01 0.00 71 1019.2
20260902070759 71 10 2.6 8.7 0.00 0.01 0.00 70 1019.2
20260902070259 71 41 2.6 7.0 0.00 0.01 0.00 69 1019.1
20260902070025 71 358 3.5 8.7 0.00 0.01 0.00 69 1019.1
20260902065258 71 6 3.5 8.7 0.00 0.01 0.00 69 1019.1
20260902064759 71 328 1.7 6.1 0.00 0.01 0.00 69 1018.9
20260902064237 71 349 1.7 6.1 0.00 0.01 0.00 69 1019.0
20260902063738 72 43 2.6 7.8 0.00 0.01 0.00 67 1019.0
20260902063210 72 60 2.6 7.8 0.00 0.01 0.00 67 1018.9
20260902062657 72 47 1.7 7.0 0.00 0.01 0.00 66 1018.9
20260902062155 73 79 1.7 7.0 0.00 0.01 0.00 65 1018.9
20260902061655 73 19 2.6 7.0 0.00 0.01 0.00 64 1018.9
20260902061418 73 79 2.6 7.0 0.00 0.01 0.00 62 1018.9
20260902060655 74 46 1.7 6.1 0.00 0.01 0.00 61 1018.8
20260902060155 74 29 1.7 6.1 0.00 0.01 0.00 60 1018.8
20260902055653 74 341 1.7 6.1 0.00 0.01 0.00 60 1018.9
20260902055153 74 38 1.7 7.0 0.00 0.01 0.00 60 1018.9
20260902054654 74 63 2.6 8.7 0.00 0.01 0.00 59 1019.0
20260902054154 74 72 3.5 8.7 0.00 0.01 0.00 58 1019.1
20260902053654 75 13 3.5 8.7 0.00 0.01 0.00 58 1019.1
20260902053153 75 5 3.5 8.7 0.00 0.01 0.00 58 1019.2
20260902052653 75 84 3.5 8.7 0.00 0.01 0.00 57 1019.2
20260902052126 75 355 3.5 11.3 0.00 0.01 0.00 58 1019.2
20260902051626 75 339 3.5 11.3 0.00 0.01 0.00 58 1019.3
20260902051126 75 341 3.5 8.7 0.00 0.01 0.00 59 1019.3
20260902050852 75 66 3.5 8.7 0.00 0.01 0.00 59 1019.3
20260902050125 75 73 2.6 7.8 0.00 0.01 0.00 61 1019.3
20260902045846 75 29 2.6 8.7 0.00 0.01 0.00 60 1019.4
20260902045125 76 62 2.6 8.7 0.00 0.01 0.00 61 1019.4
20260902044841 76 59 2.6 7.8 0.00 0.01 0.00 61 1019.5
20260902044121 76 59 3.5 7.8 0.00 0.01 0.00 61 1019.5
20260902043620 76 51 3.5 8.7 0.00 0.01 0.00 60 1019.6
20260902043120 77 353 2.6 8.7 0.00 0.01 0.00 60 1019.6
20260902042622 77 57 2.6 7.8 0.00 0.01 0.00 60 1019.7
20260902042105 77 70 2.6 7.8 0.00 0.01 0.00 59 1019.7
20260902041605 77 347 2.6 7.0 0.00 0.01 0.00 59 1019.7
20260902041103 77 35 2.6 7.0 0.00 0.01 0.00 59 1019.8
20260902040602 77 22 2.6 7.0 0.00 0.01 0.00 59 1019.8
20260902040115 77 50 3.5 8.7 0.00 0.01 0.00 58 1019.9
20260902035601 77 38 3.5 10.4 0.00 0.01 0.00 56 1020.0
20260902035100 78 327 3.5 10.4 0.00 0.01 0.00 56 1020.0
20260902034601 78 341 3.5 9.6 0.00 0.01 0.00 56 1020.0
20260902034101 77 52 3.5 9.6 0.00 0.01 0.00 55 1020.1
20260902033600 78 351 4.3 8.7 0.00 0.01 0.00 53 1020.1
20260902033059 78 16 4.3 8.7 0.00 0.01 0.00 56 1020.2
20260902032553 78 66 4.3 8.7 0.00 0.01 0.00 53 1020.3
20260902032050 78 342 2.6 7.0 0.00 0.01 0.00 54 1020.4
20260902031549 78 66 2.6 7.0 0.00 0.01 0.00 54 1020.4
20260902031050 79 52 2.6 7.0 0.00 0.01 0.00 53 1020.5
20260902030534 79 20 2.6 7.0 0.00 0.01 0.00 54 1020.6
20260902030034 79 318 2.6 7.0 0.00 0.01 0.00 53 1020.7
20260902025506 78 49 2.6 7.0 0.00 0.01 0.00 55 1020.8
20260902025006 78 24 2.6 6.1 0.00 0.01 0.00 55 1020.9
20260902024503 78 55 1.7 6.1 0.00 0.01 0.00 55 1021.1
20260902024222 78 311 1.7 6.1 0.00 0.01 0.00 56 1021.2
20260902023458 78 31 1.7 6.1 0.00 0.01 0.00 55 1021.3
20260902022959 78 33 2.6 7.0 0.00 0.01 0.00 54 1021.4
20260902022459 78 2 2.6 7.8 0.00 0.01 0.00 54 1021.6
20260902022000 78 8 3.5 7.8 0.00 0.01 0.00 53 1021.6
20260902021457 79 43 2.6 6.1 0.00 0.01 0.00 54 1021.7
20260902020955 79 4 1.7 6.1 0.00 0.01 0.00 53 1021.7
20260902020453 79 29 1.7 4.3 0.00 0.01 0.00 55 1021.8
20260902020217 78 7 1.7 4.3 0.00 0.01 0.00 54 1021.8
20260902015452 78 343 2.6 5.2 0.00 0.01 0.00 54 1021.9
20260902014950 78 356 2.6 6.1 0.00 0.01 0.00 55 1022.1
20260902014448 78 333 2.6 7.0 0.00 0.01 0.00 54 1022.3
20260902013949 78 16 2.6 7.0 0.00 0.01 0.00 54 1022.5
20260902013932 78 335 2.6 7.8 0.00 0.01 0.00 54 1022.6
20260902012950 78 323 1.7 7.8 0.00 0.01 0.00 54 1022.8
20260902012434 77 2 0.9 4.3 0.00 0.01 0.00 53 1022.9
20260902011935 77 262 0.9 4.3 0.00 0.01 0.00 51 1023.0
20260902011418 77 264 0.9 4.3 0.00 0.01 0.00 54 1023.1
20260902010917 77 241 0.9 4.3 0.00 0.01 0.00 54 1023.3
20260902010423 76 216 1.7 4.3 0.00 0.01 0.00 55 1023.4
20260902005910 76 320 1.7 4.3 0.00 0.01 0.00 55 1023.5
20260902005407 76 333 1.7 5.2 0.00 0.01 0.00 57 1023.7
20260902004904 75 8 2.6 6.1 0.00 0.01 0.00 55 1023.7
20260902004403 75 345 1.7 6.1 0.00 0.01 0.00 56 1023.9
20260902003903 75 312 0.9 4.3 0.00 0.01 0.00 59 1024.0
20260902003358 74 251 0.9 4.3 0.00 0.01 0.00 60 1024.0
20260902002858 74 234 1.7 4.3 0.00 0.01 0.00 61 1024.1
20260902002350 73 238 1.7 5.2 0.00 0.01 0.00 61 1024.2
20260902001848 73 238 1.7 5.2 0.00 0.01 0.00 63 1024.2
20260902001346 73 239 1.7 5.2 0.00 0.01 0.00 63 1024.3
20260902001111 72 242 1.7 5.2 0.00 0.01 0.00 64 1024.3
20260902000325 72 222 1.7 4.3 0.00 0.01 0.00 66 1024.4
20260901235753 71 346 1.7 4.3 0.00 0.01 0.00 68 1024.5
20260901235258 71 247 0.9 4.3 0.00 0.01 0.00 69 1024.5
20260901234726 70 318 0.9 4.3 0.00 0.01 0.00 70 1024.6
20260901234425 70 306 1.7 4.3 0.00 0.01 0.00 72 1024.7
20260901233855 69 316 0.9 5.2 0.00 0.01 0.00 73 1024.8
20260901233107 69 353 0.9 4.3 0.00 0.01 0.00 75 1024.8
20260901232539 68 353 0.9 4.3 0.00 0.01 0.00 77 1024.8
20260901232011 67 225 0.9 4.3 0.00 0.01 0.00 79 1024.8
20260901231445 67 328 0.9 4.3 0.00 0.01 0.00 81 1024.8
20260901230931 67 245 0.9 2.6 0.00 0.01 0.00 83 1024.9
20260901230353 65 239 0.9 3.5 0.00 0.01 0.00 86 1024.9
20260901225829 65 226 0.9 3.5 0.00 0.01 0.00 87 1025.0
20260901225324 64 238 0.9 3.5 0.00 0.01 0.00 88 1025.1
20260901224824 63 278 1.7 3.5 0.00 0.01 0.00 90 1025.0